Regional Weather Roundup
Issued by NWS

Home | Current Version | Previous Version | Text Only | Print | Product List | Glossary On
Versions: 1 2 3 4 5 6 7 8 9 10 11 12 13 14 15 16 17 18 19 20 21 22 23 24 25 26 27 28 29 30 31 32 33 34 35 36 37 38 39 40 41 42 43 44 45 46 47 48 49 50
000
ASUS45 KCYS 212210
RWRWY

WYOMING REGIONAL WEATHER ROUNDUP
NATIONAL WEATHER SERVICE CHEYENNE WY
300 PM MST SAT JAN 21 2017

NOTE:  "FAIR" INDICATES FEW OR NO CLOUDS BELOW 12,000 FEET
WITH NO SIGNIFICANT WEATHER AND/OR OBSTRUCTIONS TO VISIBILITY.

WYZ001-212300-
YELLOWSTONE NATIONAL PARK

CITY           SKY/WX    TMP DP  RH WIND       PRES   REMARKS
LK YELLOWSTONE   N/A     23  19  85 CALM      29.49R
W YELLOWSTONE  NOT AVBL

$$
WYZ002>013-054>058-071-098>099-212300-
NORTHERN WYOMING

CITY           SKY/WX    TMP DP  RH WIND       PRES   REMARKS
JACKSON        MOSUNNY   21  18  86 CALM      29.51R
CODY           PTSUNNY   24  17  74 NE6       29.46R WCI  17
GREYBULL       FAIR      14   9  80 NW5       29.50R WCI   6
WORLAND        FAIR      22  18  85 CALM      29.47R
SHERIDAN       FAIR      30  21  69 CALM      29.46R
BUFFALO        FAIR      33  23  66 CALM      29.44R
GILLETTE       FAIR      39  29  67 NE3       29.44R
HULETT         FAIR      36  30  80 CALM      29.45R
NEWCASTLE      MOCLDY    32  30  93 W6        29.45R WCI  26

$$
WYZ014>020-022>026-101>103-212300-
CENTRAL WYOMING

CITY           SKY/WX    TMP DP  RH WIND       PRES   REMARKS
BIG PINEY        N/A     18  15  88 SW3       29.50R
PINEDALE       CLOUDY    23  18  80 NW6       29.49R WCI  16
DUBOIS         NOT AVBL
LANDER         CLOUDY    21  14  74 N3        29.45R
RIVERTON       FAIR     N/A N/A N/A CALM      29.47R HAZE
CASPER         FAIR      35  23  61 W9        29.43R WCI  28
DOUGLAS        FAIR      40  24  53 NW13      29.43R WCI  32

$$
WYZ021-027>030-104>119-212300-
SOUTHERN WYOMING

CITY           SKY/WX    TMP DP  RH WIND       PRES   REMARKS
EVANSTON       CLOUDY    24  19  81 W15       29.56R WCI  11
ROCK SPRINGS   LGT SNOW  21  17  84 SW12      29.51R FOG     WCI   9
RAWLINS        CLOUDY    29  19  66 N8        29.45R WCI  21
LARAMIE        PTSUNNY   27  18  69 NW6       29.40R WCI  20
CHEYENNE       FAIR      40  18  41 VRB3      29.40R
TORRINGTON     FAIR      43  23  45 CALM      29.41R

$$



USA.gov is the U.S. government's official web portal to all federal, state and local government web resources and services.